This demonstration page uses our WeatherBlox Daily Observations layout. Learn more.

Left ArrowRight Arrow

Hourly Observations for November 11, 2018

Temp ( °F °C ) Dew Point ( °F °C ) Humidity (%) Winds ( mph kmh ) Pressure ( in mb ) Visibility ( mi km ) Precip ( " mm )
12:53 am 00:53 Clear 21 -6.1 16 -8.9 81 81 N N/A 30.42 1030 9 14 N/A
1:53 am 01:53 Clear 21 -6.1 16 -8.9 81 81 N N/A 30.42 1030 10 16 N/A
2:53 am 02:53 Clear 20 -6.7 15 -9.4 81 81 N N/A 30.43 1030 9 14 N/A
3:53 am 03:53 Clear 20 -6.7 15 -9.4 81 81 N N/A 30.44 1031 10 16 N/A
4:53 am 04:53 Clear 19 -7.2 15 -9.4 84 84 N N/A 30.42 1030 9 14 N/A
5:53 am 05:53 Clear 19 -7.2 15 -9.4 84 84 N N/A 30.42 1030 9 14 N/A
6:53 am 06:53 Clear 18 -7.8 15 -9.4 88 88 N N/A 30.43 1031 10 16 N/A
7:53 am 07:53 Sunny 20 -6.7 16 -8.9 85 85 N N/A 30.43 1031 9 14 N/A
8:53 am 08:53 Mostly Sunny 26 -3.3 22 -5.6 84 84 E 5 7 30.42 1030 10 16 N/A
9:53 am 09:53 Sunny 32 undefined 22 -5.6 66 66 S 6 9 30.43 1031 10 16 N/A
10:53 am 10:53 Cloudy 35 1.7 21 -6.1 57 57 VRB 3 6 30.40 1030 10 16 N/A
11:53 am 11:53 Mostly Cloudy 36 2.2 18 -7.8 48 48 SE 6 9 30.39 1029 10 16 N/A
12:53 pm 12:53 Cloudy 41 5 19 -7.2 41 41 VRB 6 9 30.36 1028 10 16 N/A
1:53 pm 13:53 Mostly Sunny 43 6.1 20 -6.7 40 40 VRB 5 7 30.33 1027 10 16 N/A
2:53 pm 14:53 Mostly Cloudy 44 6.7 20 -6.7 38 38 VRB 3 6 30.31 1026 10 16 N/A
3:53 pm 15:53 Mostly Sunny 46 7.8 20 -6.7 35 35 VRB 6 9 30.30 1026 10 16 N/A
4:53 pm 16:53 Mostly Sunny 43 6.1 19 -7.2 38 38 N N/A 30.30 1026 10 16 N/A
5:53 pm 17:53 Cloudy 41 5 26 -3.3 55 55 N N/A 30.30 1026 10 16 N/A
6:53 pm 18:53 Cloudy 38 3.3 27 -2.8 65 65 N N/A 30.32 1027 10 16 N/A
7:53 pm 19:53 Clear 32 undefined 26 -3.3 79 79 N N/A 30.32 1027 10 16 N/A
8:53 pm 20:53 Clear 30 -1.1 25 -3.9 82 82 N N/A 30.32 1027 10 16 N/A
9:53 pm 21:53 Clear 29 -1.7 25 -3.9 85 85 N N/A 30.32 1027 10 16 N/A
10:53 pm 22:53 Clear 29 -1.7 24 -4.4 82 82 N N/A 30.33 1027 10 16 N/A
11:53 pm 23:53 Mostly Cloudy 29 -1.7 25 -3.9 85 85 N N/A 30.32 1027 10 16 N/A

Powered by AerisWeather